This demonstration page uses our WeatherBlox Daily Observations layout. Learn more.

Left ArrowRight Arrow

39.08367, -84.50855

Hourly Observations for November 30, 2021

Temp ( °F °C ) Dew Point ( °F °C ) Humidity (%) Winds ( mph kmh ) Pressure ( in mb ) Visibility ( mi km ) Precip ( " mm )
12:53 am 00:53 Clear 34 1.1 21 -6.1 59 59 SSW 8 13 29.97 1015 10 16 N/A
1:53 am 01:53 Clear 34 1.1 21 -6.1 59 59 SSW 7 11 29.96 1014 10 16 N/A
2:53 am 02:53 Clear 34 1.1 20 -6.7 56 56 SSW 3 6 29.95 1014 10 16 N/A
3:53 am 03:53 Clear 35 1.7 20 -6.7 54 54 N N/A 29.95 1014 10 16 N/A
4:53 am 04:53 Clear 37 2.8 23 -5 57 57 SSW 7 11 29.94 1014 10 16 N/A
5:53 am 05:53 Clear 37 2.8 25 -3.9 62 62 SW 8 13 29.95 1014 10 16 N/A
6:53 am 06:53 Clear 39 3.9 27 -2.8 62 62 SW 12 19 29.97 1015 10 16 N/A
7:53 am 07:53 Sunny 39 3.9 29 -1.7 67 67 SSW 7 11 30.00 1016 10 16 N/A
8:53 am 08:53 Sunny 43 6.1 31 -0.6 63 63 WSW 8 13 30.01 1016 10 16 N/A
9:53 am 09:53 Sunny 45 7.2 33 0.6 63 63 W 9 15 30.05 1018 10 16 N/A
10:53 am 10:53 Sunny 48 8.9 34 1.1 58 58 W 12 19 30.07 1018 10 16 N/A
11:53 am 11:53 Sunny 50 10 34 1.1 54 54 W 6 9 30.08 1019 10 16 N/A
12:53 pm 12:53 Sunny 52 11.1 35 1.7 53 53 WSW 9 15 30.06 1018 10 16 N/A
1:53 pm 13:53 Sunny 54 12.2 36 2.2 51 51 W 9 15 30.05 1018 10 16 N/A
2:53 pm 14:53 Sunny 55 12.8 37 2.8 51 51 WSW 7 11 30.06 1018 10 16 N/A
3:53 pm 15:53 Sunny 54 12.2 36 2.2 51 51 WSW 7 11 30.07 1018 10 16 N/A
4:53 pm 16:53 Sunny 51 10.6 35 1.7 54 54 WSW 9 15 30.09 1019 10 16 N/A
5:53 pm 17:53 Clear 47 8.3 34 1.1 61 61 N N/A 30.10 1019 10 16 N/A
6:53 pm 18:53 Clear 41 5 34 1.1 76 76 SSW 3 6 30.12 1020 10 16 N/A
7:53 pm 19:53 Clear 37 2.8 34 1.1 89 89 N N/A 30.14 1021 10 16 N/A
8:53 pm 20:53 Clear 34 1.1 33 0.6 97 97 N N/A 30.14 1021 10 16 N/A
9:53 pm 21:53 Clear 32 undefined 32 undefined 100 100 N N/A 30.14 1021 10 16 N/A
10:53 pm 22:53 Clear 30 -1.1 30 -1.1 100 100 N N/A 30.15 1021 10 16 N/A
11:53 pm 23:53 Clear 30 -1.1 30 -1.1 100 100 N N/A 30.17 1022 10 16 N/A

Powered by AerisWeather